Theta_e
320 317 313 309 307 309 310 314 319 321 321 321 320 320 315 311 313 315 312 309 308 311 317 318 316 317 315 313 311 310 310 309 311 317 321 320 318 318 318 319 319 317
321 317 312 309 308 311 314 316 318 319 322 323 322 321 316 310 310 310 309 307 306 308 312 315 316 316 312 308 307 306 306 306 306 311 317 317 315 315 315 316 317 316
321 316 311 308 308 312 316 318 317 320 324 323 322 322 317 311 308 307 306 306 306 306 308 310 311 311 308 306 306 305 305 305 305 307 310 312 312 312 312 312 314 316
318 312 308 309 311 313 317 318 318 321 323 321 320 320 316 310 307 307 307 306 306 306 307 306 306 306 306 305 305 305 304 305 305 305 307 308 309 309 308 308 309 311
316 310 308 311 315 316 317 318 319 322 322 319 317 317 314 309 306 307 306 305 305 307 307 306 305 304 304 304 305 305 306 307 308 308 308 309 309 308 308 308 307 307
316 311 311 313 316 317 316 317 320 322 320 316 315 315 312 307 306 306 305 304 305 305 306 305 305 306 306 306 307 308 308 309 310 310 310 311 311 310 309 310 310 309
319 315 314 315 317 316 314 315 317 319 317 313 313 313 309 306 306 305 304 304 304 305 306 305 306 308 308 308 309 309 310 311 311 310 310 311 311 310 310 310 310 310
322 319 317 317 317 315 312 312 314 314 313 311 312 311 307 305 306 306 306 305 305 305 306 307 308 309 309 309 309 310 311 312 311 310 310 310 310 310 310 310 309 310
323 323 321 320 319 315 311 312 312 311 310 310 311 310 306 306 307 308 308 308 307 307 307 307 309 309 309 309 309 309 310 311 311 310 310 309 310 312 313 312 312 310
325 325 324 322 320 316 312 311 311 309 309 309 310 308 306 309 312 309 309 311 311 310 310 308 309 309 309 309 309 308 309 309 310 310 311 311 313 315 316 316 316 315
326 326 324 322 321 318 314 312 310 309 310 310 310 309 308 314 317 312 309 313 315 314 313 311 309 309 309 309 309 309 309 310 311 313 314 315 316 317 316 317 317 317
326 324 323 322 321 320 318 315 312 309 309 310 311 310 310 315 319 315 312 315 317 317 317 314 311 310 310 310 310 311 311 312 314 316 317 317 317 318 318 318 317 317
325 323 321 321 322 322 319 318 315 311 309 309 312 312 312 315 318 317 314 314 317 317 317 316 314 313 314 314 315 316 316 317 318 318 318 317 317 318 318 318 317 317
324 322 320 319 322 322 320 320 318 314 312 313 315 316 314 316 319 319 316 315 316 317 316 317 317 316 317 318 318 319 319 320 320 319 318 318 317 318 318 317 316 317
322 321 319 319 322 323 321 321 320 317 315 317 319 319 318 318 319 318 317 316 317 317 317 317 317 317 318 318 318 319 319 321 320 319 319 319 318 318 318 317 317 317
321 320 320 320 322 323 322 322 321 319 318 317 319 320 319 318 318 318 317 316 317 317 318 317 318 317 318 318 318 318 319 320 320 319 319 320 319 318 317 316 316 316
321 321 322 321 320 321 322 322 321 319 318 317 317 319 319 319 319 318 318 318 317 317 317 317 318 318 318 318 318 318 318 319 319 319 318 319 318 317 316 316 316 316
319 320 322 321 319 319 320 321 321 320 320 318 317 317 317 317 318 319 319 319 318 318 317 317 317 317 317 318 318 318 319 318 318 318 319 319 317 316 316 317 316 316
320 321 322 321 320 320 320 321 322 322 322 321 319 318 318 318 319 319 319 319 318 318 318 318 318 318 318 318 318 319 319 318 318 318 318 317 317 316 316 316 316 316
318 319 320 320 321 321 320 321 322 323 323 323 322 321 321 320 320 320 320 320 319 319 319 318 318 318 318 318 318 319 320 319 318 317 316 316 316 316 316 316 316 317
314 315 316 318 318 318 318 318 319 320 320 320 321 320 320 319 319 319 319 319 319 319 319 319 319 318 318 318 318 319 319 319 318 317 317 316 316 316 317 317 316 316
313 313 314 314 315 315 315 317 318 318 317 317 317 317 317 316 316 315 316 316 317 317 318 318 317 317 317 317 317 318 318 318 317 317 317 317 317 316 316 316 316 316
312 312 313 313 313 313 314 315 316 317 317 317 316 315 315 315 314 313 313 313 314 314 315 316 316 316 316 316 317 318 318 318 318 318 318 318 317 316 315 315 315 315
311 311 312 312 313 313 313 313 313 314 314 314 314 314 315 315 315 314 314 313 313 313 313 314 314 315 315 314 315 316 317 318 318 317 317 317 316 315 315 315 315 315
308 308 309 310 310 310 311 312 313 313 313 313 313 313 314 314 315 315 315 314 313 313 313 313 313 312 311 311 312 314 315 316 316 316 317 316 315 315 315 315 314 314
304 304 305 306 307 308 308 309 309 310 311 312 312 313 313 314 314 314 315 314 314 314 313 312 312 312 311 311 311 313 314 313 314 316 316 315 314 315 315 314 313 313
Wind_Speed
18 17 15 13 13 13 13 14 12 10 7 5 4 4 6 9 10 9 7 9 11 13 14 12 10 8 6 6 7 9 10 11 11 13 14 14 14 14 15 15 14 14
19 18 16 15 14 14 14 13 12 10 8 6 5 4 5 6 8 8 8 10 11 12 14 14 11 8 7 9 11 11 12 12 13 14 15 15 15 14 14 15 16 15
19 18 16 15 15 15 15 13 13 12 10 8 6 5 4 6 7 9 9 9 9 11 11 12 11 9 8 10 10 10 10 11 12 14 14 14 13 11 11 13 14 15
19 18 17 16 15 15 15 14 15 14 11 9 7 5 4 7 8 7 7 8 10 11 11 11 11 11 11 11 11 11 11 12 14 14 14 13 11 10 12 13 14 15
18 18 17 16 15 15 15 16 16 14 12 10 8 5 5 8 8 6 7 10 12 12 12 13 14 14 15 15 15 16 16 16 17 16 16 15 13 13 14 14 15 16
17 18 18 16 15 14 15 16 16 14 13 10 8 6 6 8 7 7 10 12 12 13 14 15 17 17 17 17 17 18 17 16 15 15 15 14 14 14 13 13 13 14
17 17 17 17 15 13 14 16 16 15 13 10 8 7 7 9 8 9 12 13 13 14 15 17 17 17 17 17 16 16 14 13 12 12 11 11 11 11 11 11 10 11
19 17 17 17 15 13 13 15 16 15 13 10 8 7 8 10 10 11 13 13 13 14 14 16 16 15 15 14 14 13 12 11 10 9 8 8 8 7 7 8 9 10
20 17 17 16 14 13 12 13 14 14 12 10 9 8 9 10 11 11 12 12 12 13 13 14 14 13 12 12 11 11 10 8 7 6 5 5 5 4 4 5 6 7
21 19 17 15 13 12 12 12 13 13 12 10 9 9 10 11 10 10 12 12 11 11 11 12 12 11 10 10 10 9 8 6 5 4 5 6 5 4 3 2 3 5
20 18 16 13 12 11 12 12 12 11 11 10 9 9 11 12 10 9 11 11 9 9 9 9 10 10 9 9 9 7 6 5 5 5 6 8 7 6 4 3 1 2
17 16 16 15 14 13 13 13 12 11 11 10 9 10 11 13 11 9 10 11 10 9 8 8 9 9 8 7 6 5 5 5 5 6 7 8 9 9 8 6 4 3
16 17 18 16 15 15 15 14 12 13 12 11 11 10 11 13 11 9 10 12 12 10 9 9 9 7 7 6 6 6 6 6 6 6 7 8 9 10 10 8 6 7
15 17 18 16 16 16 17 15 14 14 12 12 12 11 12 13 12 11 11 13 12 10 11 12 11 9 9 8 8 8 8 9 9 8 8 9 9 9 9 8 7 8
14 16 17 17 17 18 18 17 15 15 15 14 14 13 12 14 15 14 13 14 14 13 13 14 13 13 13 12 12 12 11 12 12 11 11 11 10 10 10 10 9 9
16 16 17 19 19 19 21 18 15 16 17 16 17 16 14 15 15 15 15 15 17 17 16 16 16 16 16 16 16 16 16 16 15 15 14 13 12 11 12 12 12 11
14 15 17 19 18 18 20 19 17 18 18 18 19 18 17 17 17 16 17 17 18 19 19 19 18 18 18 18 19 19 19 19 19 17 16 15 15 15 15 15 14 14
10 12 14 14 14 16 19 20 20 21 20 20 20 19 19 19 18 19 19 19 20 21 21 22 22 22 21 21 20 20 20 21 21 20 18 18 19 19 18 18 18 18
8 9 11 10 11 14 17 17 18 19 18 18 20 20 20 20 20 21 21 22 23 23 23 24 24 24 23 23 22 21 20 21 21 21 21 22 22 21 21 21 21 21
11 9 7 6 6 7 7 8 9 10 11 12 13 14 15 16 18 20 21 23 24 25 25 25 25 25 24 24 24 22 20 20 21 21 22 22 22 21 21 22 23 23
17 13 11 10 8 7 5 3 2 2 3 5 7 8 9 10 12 14 16 19 21 24 25 25 26 26 26 25 24 23 22 22 23 23 23 22 21 21 21 20 21 21
15 14 13 11 10 8 6 5 2 1 2 3 4 6 8 9 10 11 12 14 16 18 21 23 23 23 23 24 24 24 24 24 24 25 24 22 21 20 19 18 17 16
10 10 9 8 7 7 8 7 5 3 1 2 4 6 8 9 10 11 12 13 15 16 17 19 20 20 20 21 22 22 23 23 24 24 22 20 19 19 18 16 15 14
3 3 3 2 2 2 4 5 6 6 5 2 1 4 7 10 12 12 12 13 14 16 17 17 18 19 19 20 20 20 20 20 21 21 19 18 17 18 17 16 15 15
4 3 4 5 5 6 5 5 5 6 6 6 6 5 6 8 12 14 15 14 14 15 16 17 19 19 20 19 19 18 19 19 18 18 17 17 19 18 17 17 16 15
8 7 7 8 9 9 9 8 9 10 10 11 11 11 10 9 10 12 15 17 17 17 16 16 17 19 19 19 18 17 18 18 17 16 17 20 20 19 18 18 16 15
Wind_Direction
191 184 184 179 175 173 166 160 160 166 171 168 169 160 152 156 162 170 160 137 138 147 154 154 145 141 136 129 132 129 127 129 129 133 137 135 131 131 132 134 130 123
195 190 187 182 177 170 164 162 163 163 167 180 195 195 176 153 143 147 141 133 133 138 150 156 154 153 134 123 126 125 125 125 123 131 140 138 135 138 140 141 139 135
198 193 189 185 177 167 164 164 161 164 174 193 210 213 181 149 138 139 141 144 143 140 147 152 153 154 140 128 125 122 122 121 119 126 137 141 142 140 135 138 145 145
197 191 187 186 179 169 169 167 162 169 183 194 204 212 180 153 148 147 142 144 146 143 141 140 138 137 134 131 126 119 114 109 109 114 121 126 127 120 115 121 133 142
195 189 187 185 181 175 174 170 168 177 188 192 197 202 175 158 157 150 138 142 145 143 136 130 126 125 127 127 123 117 112 110 109 109 109 107 104 101 103 108 113 118
192 188 187 185 184 184 180 174 175 186 190 189 196 196 169 160 159 143 136 140 142 140 135 129 125 124 124 125 122 119 118 117 115 116 114 111 108 107 109 111 106 106
192 187 186 189 190 189 184 179 183 193 191 186 195 191 164 156 154 141 136 136 137 139 138 135 133 132 130 129 128 126 123 121 121 123 121 118 116 116 118 119 111 110
194 189 188 192 195 193 188 184 190 197 191 187 194 188 164 155 148 142 140 139 141 144 144 143 142 140 137 136 136 133 130 130 130 127 123 121 122 119 119 122 121 124
197 194 193 195 196 194 189 187 195 201 192 185 195 189 166 153 147 147 146 145 149 150 150 152 151 149 144 142 145 145 144 145 141 131 126 130 134 132 126 124 127 138
198 194 192 195 197 193 191 195 204 207 194 185 198 194 170 154 151 155 155 154 160 163 162 163 163 162 159 155 158 161 161 163 159 156 153 148 150 157 159 134 116 139
196 190 180 183 194 194 197 206 213 212 197 187 196 191 171 162 164 172 169 164 171 178 178 179 179 181 182 178 177 177 180 184 180 178 172 164 168 182 202 220 204 167
202 190 178 177 190 202 207 210 214 210 200 193 194 187 172 169 177 191 183 174 181 190 193 202 204 202 203 202 199 200 204 206 196 184 181 178 181 190 201 211 216 217
204 191 188 186 191 204 210 211 210 203 200 201 197 189 179 176 187 207 197 184 190 196 201 216 228 228 226 218 215 223 222 213 205 198 201 205 203 202 205 209 213 214
193 188 196 197 198 206 209 210 210 201 197 197 192 189 187 184 193 210 203 192 197 204 206 218 234 241 231 217 217 226 220 208 213 227 236 234 228 227 230 233 237 233
196 194 200 203 206 209 207 208 207 199 192 188 186 190 195 195 200 211 208 199 202 207 208 216 231 235 228 221 225 233 229 219 226 242 248 244 243 249 254 257 260 258
197 198 203 206 209 211 210 207 200 195 192 190 191 194 199 204 210 216 215 209 208 212 212 217 227 231 227 226 234 242 240 235 237 243 242 242 247 254 257 259 260 261
189 195 200 205 208 210 210 205 195 195 197 195 198 201 204 210 217 221 220 217 217 219 220 222 228 230 231 234 242 248 247 244 246 248 247 249 255 260 264 263 261 263
165 179 182 190 197 199 202 199 194 198 202 202 205 209 211 214 220 226 228 228 227 227 228 231 234 238 241 245 249 252 252 253 254 253 253 256 260 264 267 266 266 268
121 146 155 164 171 177 188 195 195 199 206 209 212 216 220 224 226 230 235 237 236 235 236 237 240 244 248 250 251 252 255 256 255 253 255 258 261 263 265 267 269 270
90 103 115 117 113 130 160 181 187 196 206 212 217 221 225 230 232 235 239 240 241 242 243 245 248 251 253 254 253 253 256 259 259 258 259 261 261 262 263 266 269 267
90 92 93 90 79 67 63 78 123 173 203 221 230 233 234 235 236 239 242 243 244 247 249 251 252 253 253 255 254 256 260 264 265 265 265 265 265 266 264 263 263 259
96 98 99 105 109 99 84 80 76 6 339 301 272 260 255 253 251 249 249 249 250 251 252 253 253 253 254 253 253 256 260 264 266 266 265 266 267 265 258 250 246 241
95 98 98 106 121 122 114 112 116 116 43 342 307 289 280 273 270 265 260 258 257 256 255 253 252 253 255 255 255 256 258 260 261 260 262 262 258 251 243 233 227 224
69 100 122 137 159 164 146 138 141 140 131 133 269 297 295 286 281 278 272 268 264 261 261 259 257 256 257 261 263 261 260 259 257 257 258 250 237 229 225 219 217 216
305 280 248 247 257 257 247 234 217 200 196 207 220 244 269 279 282 281 279 275 270 266 265 264 263 262 262 264 266 263 261 259 255 253 245 229 217 214 214 215 218 218
290 282 265 256 259 263 262 262 261 255 249 242 238 240 242 246 258 271 278 279 275 270 267 265 266 266 266 264 262 258 255 253 248 238 222 211 210 211 213 217 220 219